Regional Weather Roundup
Issued by NWS Northern Indiana

Home | Current Version | Previous Version | Text Only | Print | Product List | Glossary On
Versions: 1 2 3 4 5 6 7 8 9 10 11 12 13 14 15 16 17 18 19 20 21 22 23 24 25 26 27 28 29 30 31 32 33 34 35 36 37 38 39 40 41 42 43 44 45 46 47 48 49 50
000
ASUS43 KIWX 030110
RWRIWX

KIWX WEATHER ROUNDUP
NATIONAL WEATHER SERVICE NORTHERN INDIANA
900 PM EDT MON MAY 02 2016

NOTE: "FAIR" INDICATES FEW OR NO CLOUDS BELOW 12,000 FEET WITH NO
SIGNIFICANT WEATHER AND/OR OBSTRUCTIONS TO VISIBILITY.

* THESE STATIONS ARE NOT UNDER NWS QUALITY CONTROL. THEY ALSO MAY NOT
  REPORT WEATHER SUCH AS PRECIPITATION OR FOG.

INZ001>027-030200-
NORTHERN INDIANA

CITY           SKY/WX    TMP DP  RH WIND       PRES   REMARKS
GARY*          MOCLDY    48  43  81 N5        30.03S
VALPARAISO     CLOUDY    48  38  68 N3        30.01S
MICHIGAN CITY* CLOUDY    46  39  76 N3        30.02S
LAPORTE*       CLOUDY    50  41  70 N6        30.01S
KNOX*          CLOUDY    48  36  61 N7        30.00S
SOUTH BEND     CLOUDY    50  42  74 N5        30.01S
ELKHART*       CLOUDY    50  48  93 CALM      30.01R
GOSHEN         CLOUDY    50  46  86 NE6       29.99S
MONTICELLO*    CLOUDY    51  45  81 N6        29.98S
LOGANSPORT*    CLOUDY    50  48  93 N5        29.99S FOG
ROCHESTER*     CLOUDY    52  50  93 CALM      30.00S
WARSAW*        CLOUDY    50  46  87 N3        30.00R
ANGOLA*        CLOUDY    48  39  71 NE3       29.99S
FORT WAYNE     DRIZZLE   50  48  93 NE7       29.99S FOG
HUNTINGTON*    CLOUDY   N/A N/A N/A NE6       29.98R
MARION*        CLOUDY    50  49  95 NE9       29.97F

$$
INZ028>050-030200-
CENTRAL INDIANA

CITY           SKY/WX    TMP DP  RH WIND       PRES   REMARKS
LAFAYETTE      CLOUDY    51  48  89 NE10      29.98S
KOKOMO*        CLOUDY    52  46  82 N8        29.97S
MUNCIE*        CLOUDY    54  49  83 NE8       29.95S
INDIANAPOLIS   CLOUDY    54  49  83 N14       29.94R

$$
MIZ043>046-050>051-056>058-064>065-071>073-077>080-030200-
SOUTHWEST LOWER MICHIGAN

CITY           SKY/WX    TMP DP  RH WIND       PRES   REMARKS
BATTLE CREEK   CLOUDY    51  43  74 NE3       30.00S
BENTON HARBOR  CLOUDY    49  38  65 CALM      30.01S
COLDWATER*     CLOUDY    49  46  89 CALM      30.00S
HILLSDALE*     CLOUDY    49  44  82 CALM      29.99S
HOLLAND        CLEAR     51  41  68 NW3       30.01S
GRAND RAPIDS   PTCLDY    52  42  69 E5        30.01S
KALAMAZOO      CLOUDY    53  43  68 CALM      30.00S
STURGIS*       CLOUDY    49  46  90 CALM      29.99S
THREE RIVERS*  CLOUDY    51  46  82 CALM      30.00F

$$
OHZ001>008-015>018-024>025-030200-
NORTHWEST OHIO

CITY           SKY/WX    TMP DP  RH WIND       PRES   REMARKS
WAUSEON*         N/A     50 N/A N/A N3        29.99S
DEFIANCE       CLOUDY    50  46  86 N6        29.99S
FINDLAY        CLOUDY    51  43  74 NE8       29.97S
TOLEDO EXPRESS CLOUDY    50  44  80 NE5       29.98F
TOLEDO METCALF CLOUDY    51  44  77 E5        29.99F
LIMA           CLOUDY    51  47  86 NE10      29.96F

$$
AND FOR LAKE MICHIGAN COASTAL AND OPEN LAKE BUOY OBSERVATIONS

STATION/POSITION TEMP    WIND        PRES    VSBY  WAVE
                 AIR SEA DIR/SP/G                  HT/PER
                 (F)     (DEG/KT/KT) (MB)    (MI)  (FT/S)
CALUMET HARBOR    47                 1016.2R
MICHIGAN CITY     46      10/  7/  7   N/A
BURNS HARBOR      47      30/  7/  9 1017.3R
SAINT JOSEPH      47     350/  6/  7 1017.3S
SOUTH LAKE BUOY   42 41  310/  2/  4 1016.5F         1/ 3
4 MI NW BRIDGMAN  46 48                N/A           2/ 3

$$
&&




USA.gov is the U.S. government's official web portal to all federal, state and local government web resources and services.